PAL326 RPLL-RPVP

Flight info

Callsign PAL326
Flight time 0h 55m
Altitude 32000
Route BUCAL2R BUCAL M646 NOMYO
Aircraft A320/M-SDE3FGHIRWY/LB1

Departure

Time 2026-04-16 04:37
Airport Ninoy Aquino International Airport (RPLL)

Arrival

Time 2026-04-16 05:32
Airport Puerto Princesa International Airport / PAF Antonio Bautista Air Base (RPVP)
Time Latitude Longitude Altitude Speed Heading
2026-04-16 04:28 14.50368 121.00475 69 ft 0 kts 308°
2026-04-16 04:31 14.50356 121.00490 61 ft 2 kts 308°
2026-04-16 04:31 14.50345 121.00504 60 ft 2 kts 308°
2026-04-16 04:31 14.50334 121.00518 65 ft 2 kts 308°
2026-04-16 04:31 14.50324 121.00532 68 ft 3 kts 291°
2026-04-16 04:32 14.50320 121.00550 62 ft 3 kts 256°
2026-04-16 04:32 14.50323 121.00560 63 ft 0 kts 239°
2026-04-16 04:32 14.50323 121.00559 61 ft 2 kts 239°
2026-04-16 04:33 14.50295 121.00503 68 ft 11 kts 245°
2026-04-16 04:33 14.50261 121.00438 68 ft 10 kts 240°
2026-04-16 04:33 14.50220 121.00363 63 ft 12 kts 240°
2026-04-16 04:33 14.50162 121.00334 62 ft 10 kts 165°
2026-04-16 04:34 14.50106 121.00304 65 ft 9 kts 229°
2026-04-16 04:34 14.50067 121.00237 62 ft 12 kts 241°
2026-04-16 04:34 14.50030 121.00166 66 ft 10 kts 241°
2026-04-16 04:34 14.49995 121.00108 62 ft 9 kts 238°
2026-04-16 04:35 14.49966 121.00059 66 ft 7 kts 238°
2026-04-16 04:35 14.49934 121.00002 64 ft 10 kts 243°
2026-04-16 04:35 14.49892 120.99965 68 ft 7 kts 184°
2026-04-16 04:35 14.49846 120.99981 67 ft 9 kts 151°
2026-04-16 04:36 14.49804 121.00032 60 ft 11 kts 89°
2026-04-16 04:36 14.49818 121.00066 69 ft 0 kts 61°
2026-04-16 04:36 14.49921 121.00255 63 ft 71 kts 60°
2026-04-16 04:37 14.50272 121.00890 64 ft 133 kts 61°
2026-04-16 04:37 14.50834 121.01866 219 ft 169 kts 61°
2026-04-16 04:37 14.51425 121.02907 963 ft 170 kts 61°
2026-04-16 04:37 14.52007 121.03962 1789 ft 170 kts 63°
2026-04-16 04:38 14.52615 121.05071 2299 ft 189 kts 63°
2026-04-16 04:38 14.53219 121.06366 2767 ft 212 kts 77°
2026-04-16 04:38 14.53120 121.07940 3218 ft 236 kts 114°
2026-04-16 04:38 14.52450 121.08895 3583 ft 254 kts 139°
2026-04-16 04:39 14.50172 121.09604 4594 ft 274 kts 185°
2026-04-16 04:39 14.48933 121.09283 5163 ft 280 kts 200°
2026-04-16 04:39 14.46601 121.08011 6377 ft 287 kts 211°
2026-04-16 04:39 14.45487 121.07259 6932 ft 290 kts 213°
2026-04-16 04:40 14.43804 121.06097 7793 ft 293 kts 212°
2026-04-16 04:40 14.42083 121.04947 8655 ft 296 kts 211°
2026-04-16 04:40 14.40319 121.03833 9515 ft 299 kts 210°
2026-04-16 04:40 14.38509 121.02742 10243 ft 307 kts 209°
2026-04-16 04:41 14.36578 121.01617 10506 ft 330 kts 208°
2026-04-16 04:41 14.34522 121.00447 10995 ft 343 kts 208°
2026-04-16 04:41 14.32410 120.99255 11647 ft 349 kts 208°
2026-04-16 04:41 14.30259 120.98040 12335 ft 355 kts 208°
2026-04-16 04:42 14.28075 120.96805 13033 ft 359 kts 208°
2026-04-16 04:42 14.25869 120.95555 13709 ft 365 kts 208°
2026-04-16 04:42 14.23633 120.94284 14312 ft 369 kts 209°
2026-04-16 04:42 14.21378 120.92998 14921 ft 372 kts 209°
2026-04-16 04:43 14.19096 120.91701 15528 ft 376 kts 208°
2026-04-16 04:43 14.16794 120.90396 16131 ft 379 kts 209°
2026-04-16 04:43 14.14504 120.89096 16740 ft 383 kts 209°
2026-04-16 04:43 14.12162 120.87765 17312 ft 387 kts 209°
2026-04-16 04:44 14.09794 120.86420 17901 ft 390 kts 209°
2026-04-16 04:44 14.07405 120.85063 18446 ft 394 kts 209°
2026-04-16 04:44 14.04985 120.83691 18962 ft 397 kts 209°
2026-04-16 04:44 14.02559 120.82316 19472 ft 400 kts 208°
2026-04-16 04:45 14.00110 120.80927 19987 ft 402 kts 208°
2026-04-16 04:45 13.97643 120.79528 20508 ft 405 kts 208°
2026-04-16 04:45 13.95198 120.78142 21012 ft 407 kts 208°
2026-04-16 04:45 13.92708 120.76730 21517 ft 410 kts 208°
2026-04-16 04:46 13.90196 120.75308 22003 ft 412 kts 208°
2026-04-16 04:46 13.87669 120.73876 22494 ft 415 kts 208°
2026-04-16 04:46 13.85130 120.72438 22969 ft 418 kts 208°
2026-04-16 04:46 13.82574 120.70994 23445 ft 420 kts 208°
2026-04-16 04:47 13.80001 120.69538 23838 ft 423 kts 208°
2026-04-16 04:47 13.77419 120.68075 24230 ft 425 kts 208°
2026-04-16 04:47 13.74823 120.66606 24626 ft 427 kts 208°
2026-04-16 04:47 13.72209 120.65129 25017 ft 429 kts 208°
2026-04-16 04:48 13.69586 120.63648 25411 ft 431 kts 208°
2026-04-16 04:48 13.66980 120.62175 25805 ft 432 kts 208°
2026-04-16 04:48 13.64344 120.60683 26214 ft 434 kts 208°
2026-04-16 04:48 13.61695 120.59185 26618 ft 435 kts 208°
2026-04-16 04:49 13.59033 120.57703 27016 ft 436 kts 206°
2026-04-16 04:49 13.56314 120.56305 27415 ft 437 kts 205°
2026-04-16 04:49 13.53557 120.54982 27800 ft 438 kts 204°
2026-04-16 04:49 13.50776 120.53691 28184 ft 439 kts 203°
2026-04-16 04:50 13.48015 120.52419 28558 ft 440 kts 203°
2026-04-16 04:50 13.45221 120.51119 28959 ft 441 kts 204°
2026-04-16 04:50 13.42427 120.49797 29330 ft 443 kts 204°
2026-04-16 04:50 13.39625 120.48457 29687 ft 445 kts 204°
2026-04-16 04:51 13.36814 120.47102 30038 ft 447 kts 204°
2026-04-16 04:51 13.33991 120.45738 30313 ft 449 kts 204°
2026-04-16 04:51 13.31154 120.44370 30584 ft 451 kts 204°
2026-04-16 04:51 13.28305 120.42996 30848 ft 453 kts 204°
2026-04-16 04:52 13.25448 120.41620 31101 ft 455 kts 204°
2026-04-16 04:52 13.22577 120.40240 31350 ft 456 kts 205°
2026-04-16 04:52 13.19695 120.38857 31609 ft 458 kts 205°
2026-04-16 04:52 13.16811 120.37473 31871 ft 457 kts 204°
2026-04-16 04:53 13.11169 120.34770 31939 ft 433 kts 204°
2026-04-16 04:53 13.05797 120.32195 31939 ft 423 kts 205°
2026-04-16 04:54 13.00509 120.29656 31936 ft 422 kts 205°
2026-04-16 04:54 12.95188 120.27101 31935 ft 422 kts 204°
2026-04-16 04:55 12.89872 120.24558 31932 ft 422 kts 204°
2026-04-16 04:55 12.84549 120.22020 31932 ft 422 kts 204°
2026-04-16 04:56 12.79235 120.19472 31935 ft 422 kts 205°
2026-04-16 04:56 12.73923 120.16923 31933 ft 422 kts 204°
2026-04-16 04:57 12.68604 120.14382 31934 ft 421 kts 204°
2026-04-16 04:57 12.63286 120.11845 31934 ft 421 kts 204°
2026-04-16 04:58 12.57974 120.09306 31933 ft 421 kts 204°
2026-04-16 04:58 12.52667 120.06768 31930 ft 421 kts 204°
2026-04-16 04:59 12.47390 120.04253 31925 ft 421 kts 204°
2026-04-16 04:59 12.42081 120.01729 31929 ft 421 kts 204°
2026-04-16 05:00 12.36777 119.99195 31926 ft 421 kts 204°
2026-04-16 05:00 12.31474 119.96663 31923 ft 420 kts 204°
2026-04-16 05:01 12.26178 119.94135 31921 ft 420 kts 204°
2026-04-16 05:01 12.20872 119.91615 31924 ft 421 kts 204°
2026-04-16 05:02 12.15563 119.89092 31921 ft 420 kts 204°
2026-04-16 05:02 12.10265 119.86566 31917 ft 420 kts 204°
2026-04-16 05:03 12.04964 119.84042 31918 ft 420 kts 204°
2026-04-16 05:04 11.97008 119.80271 31916 ft 420 kts 204°
2026-04-16 05:04 11.91708 119.77752 31916 ft 420 kts 204°
2026-04-16 05:05 11.86401 119.75227 31924 ft 421 kts 204°
2026-04-16 05:05 11.81125 119.72717 31923 ft 421 kts 204°
2026-04-16 05:06 11.75811 119.70203 31920 ft 421 kts 204°
2026-04-16 05:06 11.70493 119.67681 31920 ft 421 kts 204°
2026-04-16 05:07 11.65164 119.65183 31919 ft 422 kts 204°
2026-04-16 05:07 11.59819 119.62714 31918 ft 422 kts 204°
2026-04-16 05:08 11.54475 119.60247 31914 ft 421 kts 204°
2026-04-16 05:08 11.49141 119.57768 31915 ft 421 kts 204°
2026-04-16 05:09 11.43813 119.55288 31915 ft 421 kts 204°
2026-04-16 05:09 11.38489 119.52820 31916 ft 420 kts 204°
2026-04-16 05:10 11.33160 119.50353 31915 ft 420 kts 204°
2026-04-16 05:10 11.27866 119.47909 31916 ft 420 kts 204°
2026-04-16 05:11 11.22543 119.45445 31914 ft 420 kts 204°
2026-04-16 05:11 11.17221 119.42977 31911 ft 420 kts 204°
2026-04-16 05:12 11.11906 119.40515 31566 ft 417 kts 204°
2026-04-16 05:12 11.09274 119.39297 31059 ft 414 kts 204°
2026-04-16 05:12 11.06655 119.38088 30579 ft 412 kts 204°
2026-04-16 05:12 11.04052 119.36887 30085 ft 410 kts 204°
2026-04-16 05:13 11.01458 119.35688 29567 ft 407 kts 204°
2026-04-16 05:13 10.98889 119.34498 29092 ft 403 kts 204°
2026-04-16 05:13 10.96353 119.33323 28642 ft 399 kts 204°
2026-04-16 05:13 10.93868 119.32175 28205 ft 395 kts 204°
2026-04-16 05:14 10.91373 119.31025 27762 ft 391 kts 204°
2026-04-16 05:14 10.88903 119.29887 27324 ft 388 kts 204°
2026-04-16 05:14 10.86451 119.28759 26875 ft 385 kts 204°
2026-04-16 05:14 10.84013 119.27636 26434 ft 384 kts 204°
2026-04-16 05:15 10.81590 119.26515 25981 ft 382 kts 204°
2026-04-16 05:15 10.79173 119.25397 25517 ft 381 kts 203°
2026-04-16 05:15 10.76764 119.24287 25054 ft 380 kts 204°
2026-04-16 05:15 10.74358 119.23179 24569 ft 380 kts 203°
2026-04-16 05:16 10.71948 119.22068 24087 ft 380 kts 204°
2026-04-16 05:16 10.69541 119.20957 23599 ft 381 kts 203°
2026-04-16 05:16 10.67125 119.19844 23046 ft 381 kts 203°
2026-04-16 05:16 10.64716 119.18733 22548 ft 379 kts 203°
2026-04-16 05:17 10.62315 119.17623 22067 ft 378 kts 203°
2026-04-16 05:17 10.59929 119.16519 21581 ft 377 kts 203°
2026-04-16 05:17 10.57542 119.15415 21110 ft 376 kts 203°
2026-04-16 05:17 10.55160 119.14319 20637 ft 376 kts 203°
2026-04-16 05:18 10.52780 119.13228 20168 ft 375 kts 203°
2026-04-16 05:18 10.50402 119.12135 19706 ft 374 kts 203°
2026-04-16 05:18 10.48032 119.11043 19238 ft 374 kts 203°
2026-04-16 05:18 10.45694 119.09967 18782 ft 374 kts 203°
2026-04-16 05:19 10.43324 119.08875 18313 ft 374 kts 203°
2026-04-16 05:19 10.40958 119.07782 17810 ft 374 kts 203°
2026-04-16 05:19 10.38597 119.06692 17370 ft 371 kts 203°
2026-04-16 05:19 10.36253 119.05611 16902 ft 370 kts 203°
2026-04-16 05:20 10.34000 119.04376 16473 ft 369 kts 214°
2026-04-16 05:20 10.31940 119.02837 16119 ft 366 kts 216°
2026-04-16 05:20 10.29904 119.01306 15536 ft 360 kts 216°
2026-04-16 05:20 10.27924 118.99818 15104 ft 348 kts 216°
2026-04-16 05:21 10.26009 118.98379 14684 ft 337 kts 216°
2026-04-16 05:21 10.24153 118.96985 14279 ft 327 kts 216°
2026-04-16 05:21 10.22348 118.95633 13887 ft 319 kts 216°
2026-04-16 05:21 10.20585 118.94309 13467 ft 311 kts 216°
2026-04-16 05:22 10.18855 118.93011 13075 ft 310 kts 216°
2026-04-16 05:22 10.17113 118.91704 12680 ft 313 kts 216°
2026-04-16 05:22 10.15248 118.90572 12279 ft 313 kts 201°
2026-04-16 05:22 10.13151 118.90003 11873 ft 312 kts 185°
2026-04-16 05:23 10.10988 118.90042 11475 ft 311 kts 168°
2026-04-16 05:23 10.08903 118.90590 11059 ft 310 kts 161°
2026-04-16 05:23 10.06832 118.91207 10646 ft 310 kts 161°
2026-04-16 05:23 10.04768 118.91822 10360 ft 307 kts 162°
2026-04-16 05:24 10.02736 118.92426 10063 ft 303 kts 162°
2026-04-16 05:24 10.00722 118.93026 9628 ft 299 kts 162°
2026-04-16 05:24 9.98765 118.93610 9039 ft 296 kts 162°
2026-04-16 05:24 9.96780 118.94203 8580 ft 298 kts 162°
2026-04-16 05:25 9.94799 118.94793 8183 ft 297 kts 162°
2026-04-16 05:25 9.92822 118.95381 7759 ft 297 kts 162°
2026-04-16 05:25 9.90846 118.95969 7277 ft 297 kts 163°
2026-04-16 05:25 9.88896 118.96549 6791 ft 287 kts 163°
2026-04-16 05:26 9.87015 118.97107 6344 ft 276 kts 164°
2026-04-16 05:26 9.85202 118.97645 5883 ft 267 kts 164°
2026-04-16 05:26 9.83454 118.98161 5456 ft 257 kts 164°
2026-04-16 05:26 9.81739 118.98521 5045 ft 249 kts 176°
2026-04-16 05:27 9.80005 118.98453 4622 ft 252 kts 189°
2026-04-16 05:27 9.78282 118.98152 4300 ft 250 kts 189°
2026-04-16 05:27 9.76626 118.97862 4139 ft 232 kts 191°
2026-04-16 05:27 9.75137 118.97302 3727 ft 229 kts 214°
2026-04-16 05:28 9.74043 118.96195 3501 ft 218 kts 238°
2026-04-16 05:28 9.73488 118.94813 3296 ft 208 kts 260°
2026-04-16 05:28 9.73439 118.93356 3061 ft 208 kts 272°
2026-04-16 05:28 9.73507 118.91904 2796 ft 204 kts 273°
2026-04-16 05:29 9.73572 118.90476 2536 ft 202 kts 272°
2026-04-16 05:29 9.73613 118.89548 2393 ft 195 kts 272°
2026-04-16 05:29 9.73691 118.87785 2043 ft 182 kts 273°
2026-04-16 05:29 9.73745 118.86560 1843 ft 165 kts 272°
2026-04-16 05:30 9.73794 118.85442 1614 ft 155 kts 273°
2026-04-16 05:30 9.73841 118.84370 1407 ft 151 kts 272°
2026-04-16 05:30 9.73887 118.83316 1217 ft 150 kts 274°
2026-04-16 05:30 9.73933 118.82267 1037 ft 149 kts 273°
2026-04-16 05:31 9.73963 118.81574 925 ft 149 kts 272°
2026-04-16 05:31 9.74009 118.80525 739 ft 149 kts 271°
2026-04-16 05:31 9.74055 118.79475 542 ft 149 kts 270°
2026-04-16 05:31 9.74103 118.78436 382 ft 145 kts 269°
2026-04-16 05:32 9.74148 118.77406 193 ft 145 kts 269°
2026-04-16 05:32 9.74184 118.76414 76 ft 124 kts 271°
2026-04-16 05:32 9.74215 118.75851 79 ft 36 kts 273°
2026-04-16 05:32 9.74222 118.75668 79 ft 26 kts 274°
2026-04-16 05:33 9.74233 118.75478 80 ft 28 kts 272°
2026-04-16 05:33 9.74241 118.75303 82 ft 12 kts 273°
2026-04-16 05:33 9.74269 118.75254 83 ft 8 kts 346°
2026-04-16 05:33 9.74346 118.75256 85 ft 12 kts
2026-04-16 05:34 9.74410 118.75224 83 ft 11 kts 289°
2026-04-16 05:34 9.74412 118.75153 82 ft 10 kts 271°
2026-04-16 05:34 9.74416 118.75089 82 ft 9 kts 272°
2026-04-16 05:34 9.74421 118.75065 82 ft 2 kts 298°
2026-04-16 05:35 9.74435 118.75058 85 ft 2 kts 344°
2026-04-16 05:35 9.74449 118.75057 82 ft 2 kts 358°
2026-04-16 05:35 9.74477 118.75058 85 ft 5 kts
2026-04-16 05:35 9.74511 118.75059 87 ft 4 kts
2026-04-16 05:36 9.74512 118.75059 87 ft 0 kts